TimeCST,TemperatureF,Dew PointF,Humidity,Sea Level PressureIn,VisibilityMPH,Wind Direction,Wind SpeedMPH,Gust SpeedMPH,PrecipitationIn,Events,Conditions,WindDirDegrees,DateUTC
12:51 AM,63.0,36.0,37,30.00,10.0,South,16.1,23.0,N/A,,Mostly Cloudy,180,2012-03-07 06:51:00
1:51 AM,61.0,33.1,35,30.00,10.0,South,13.8,-,N/A,,Mostly Cloudy,180,2012-03-07 07:51:00
2:51 AM,60.8,33.8,36,30.01,10.0,South,8.1,21.9,N/A,,Mostly Cloudy,180,2012-03-07 08:51:00
3:51 AM,59.0,34.0,39,30.00,10.0,South,12.7,19.6,N/A,,Mostly Cloudy,180,2012-03-07 09:51:00
4:51 AM,60.8,37.4,42,30.02,10.0,South,15.0,25.3,N/A,,Mostly Cloudy,180,2012-03-07 10:51:00
5:51 AM,60.8,39.2,45,30.04,10.0,South,15.0,23.0,N/A,,Mostly Cloudy,190,2012-03-07 11:51:00
6:51 AM,61.0,42.1,50,30.04,10.0,South,16.1,-,N/A,,Mostly Cloudy,190,2012-03-07 12:51:00
7:51 AM,61.0,44.1,54,30.04,10.0,South,11.5,31.1,N/A,,Mostly Cloudy,170,2012-03-07 13:51:00
8:51 AM,64.0,46.9,54,30.02,10.0,South,21.9,35.7,N/A,,Mostly Cloudy,180,2012-03-07 14:51:00
9:51 AM,64.0,48.0,56,30.03,10.0,South,17.3,34.5,N/A,,Mostly Cloudy,190,2012-03-07 15:51:00
10:51 AM,69.1,48.0,47,30.01,10.0,South,20.7,38.0,N/A,,Mostly Cloudy,190,2012-03-07 16:51:00
11:51 AM,70.0,48.0,46,29.99,10.0,South,25.3,40.3,N/A,,Scattered Clouds,190,2012-03-07 17:51:00
12:51 PM,70.0,48.0,46,29.96,10.0,SSW,19.6,34.5,N/A,,Overcast,200,2012-03-07 18:51:00
1:51 PM,71.1,48.0,44,29.94,10.0,South,20.7,31.1,N/A,,Mostly Cloudy,190,2012-03-07 19:51:00
2:51 PM,70.0,48.0,46,29.95,10.0,SSW,25.3,33.4,N/A,,Overcast,210,2012-03-07 20:51:00
3:51 PM,69.1,48.9,49,29.94,10.0,South,18.4,26.5,N/A,,Overcast,170,2012-03-07 21:51:00
4:51 PM,69.1,48.9,49,29.94,10.0,WSW,20.7,33.4,N/A,,Overcast,250,2012-03-07 22:51:00
5:51 PM,69.1,50.0,51,29.94,10.0,South,17.3,25.3,N/A,,Overcast,180,2012-03-07 23:51:00
6:51 PM,68.0,51.1,55,29.94,10.0,South,15.0,27.6,N/A,,Overcast,180,2012-03-08 00:51:00
7:51 PM,68.0,51.1,55,29.93,10.0,South,16.1,24.2,N/A,,Overcast,170,2012-03-08 01:51:00
8:51 PM,69.1,50.0,51,29.93,10.0,South,20.7,27.6,N/A,,Overcast,180,2012-03-08 02:51:00
9:51 PM,69.1,50.0,51,29.93,10.0,South,15.0,28.8,N/A,,Overcast,190,2012-03-08 03:51:00
10:51 PM,70.0,50.0,49,29.93,10.0,SSW,19.6,29.9,N/A,,Overcast,200,2012-03-08 04:51:00
11:51 PM,66.2,53.6,64,29.95,8.0,SSW,17.3,25.3,N/A,Rain,Light Rain,200,2012-03-08 05:51:00